Tracking 18840 objects as of 18-November-2017
HD Live streaming from Space Station
objects crossing your sky now

FENGYUN 1C DEB

Track FENGYUN 1C DEB now!
10-day predictions


NORAD ID: 30314
Int'l Code: 1999-025AAB
Perigee: 814.7 km
Apogee: 1,031.7 km
Inclination: 98.4 °
Period: 103.3 minutes
Semi major axis: 7294 km
RCS: 0.0083 m2 (small)
Launch date: May 10, 1999
Source: People's Republic of China (PRC)
Launch site: Taiyaun Space Center, China (TSC)

Note: This is SATELLITE DEBRIS
aabbcc
Your satellite tracking list
Your tracking list is empty




NASA's NSSDC Master Catalog

Two Line Element Set (TLE):
1 30314U 99025AAB 17322.32758546  .00000571  00000-0  42450-3 0  9992
2 30314  98.4156   0.4343 0148738 302.9299  55.7632 13.93587041550150
Source of the keplerian elements: AFSPC